Wind_Speed
37 36 35 33 32 29 25 24 30 26 27 25 21 24 27 26 23 18 20 22 21 19 18 19 21 21 19 20 20 20 20 21 21 22 24 23 22 22 22 22 22 22 22 21 21 21 21 21 22
39 39 37 36 35 30 24 29 30 33 29 28 26 29 29 26 21 21 22 23 19 19 18 20 21 21 22 22 21 21 21 22 22 22 23 24 25 25 25 24 24 24 24 24 23 22 23 24 24
40 41 40 40 38 28 22 34 38 37 34 30 31 33 34 27 24 22 20 20 20 20 18 19 21 22 23 24 25 24 24 24 24 24 24 25 24 25 26 26 26 25 25 25 25 25 25 24 24
43 43 42 42 35 26 26 37 38 37 34 32 36 36 37 31 25 23 22 21 22 22 20 20 22 22 22 24 25 25 25 25 25 26 26 26 27 27 27 27 27 27 27 26 26 26 25 26 26
45 44 44 41 30 26 31 39 37 35 31 29 31 35 35 32 29 28 26 25 24 23 22 22 22 23 23 22 23 25 26 27 27 27 27 27 27 27 27 28 28 28 28 28 27 27 27 26 26
47 46 45 38 28 28 32 38 38 34 30 25 29 35 36 33 30 29 27 28 27 26 25 24 23 23 23 23 23 23 22 25 26 26 27 27 27 28 28 28 28 28 28 28 27 27 25 25 25
48 47 44 37 30 33 30 36 38 34 32 29 30 35 34 33 29 30 29 30 30 27 24 26 26 25 24 24 23 23 22 22 22 22 23 24 26 26 27 27 27 27 28 28 27 26 26 26 25
49 48 45 39 34 30 32 38 37 34 30 30 31 34 33 28 27 27 28 28 28 28 27 28 28 26 26 26 25 24 23 23 22 22 22 22 23 24 24 25 25 25 26 26 26 25 25 25 24
45 47 44 37 36 29 33 34 35 36 34 33 31 30 30 26 26 26 25 25 25 26 28 29 29 29 30 29 28 28 27 26 25 24 22 22 23 23 23 22 22 22 23 24 25 25 25 25 25
45 47 42 36 35 33 35 39 39 40 39 34 30 30 31 28 27 27 27 25 25 25 26 28 29 30 31 31 31 30 29 28 27 26 24 22 23 24 24 23 22 21 22 23 24 25 26 27 27
46 45 42 38 35 37 39 41 41 43 42 33 32 31 34 32 30 29 28 26 27 26 25 27 29 29 28 28 30 30 30 30 30 29 28 26 25 25 25 25 25 24 23 24 24 24 26 28 29
48 47 44 40 40 41 40 42 42 43 39 31 30 31 33 33 31 29 28 27 27 26 27 27 27 27 27 27 27 28 28 29 30 30 29 29 28 27 26 26 25 26 25 25 25 26 26 27 29
51 49 47 44 44 44 41 40 42 41 35 32 27 33 34 34 34 31 29 29 27 26 29 26 25 24 26 27 25 26 28 28 29 30 29 30 30 29 28 27 28 28 27 26 27 28 28 28 28
53 52 51 48 46 45 42 38 40 37 38 36 31 34 35 34 32 31 29 29 32 31 29 27 24 25 25 26 26 27 26 28 28 29 29 30 30 29 29 29 30 31 30 29 29 30 31 31 30
53 53 53 49 46 46 45 40 37 39 44 42 35 33 34 32 31 27 28 32 35 31 29 27 27 28 26 25 25 26 25 26 28 29 29 30 31 29 30 30 30 31 31 31 30 30 31 32 32
51 52 51 47 47 48 48 39 39 41 45 42 35 32 32 30 30 27 30 33 35 30 29 30 29 29 28 27 28 28 28 27 26 25 27 28 28 29 30 31 30 30 30 31 30 30 30 30 32
52 51 48 45 48 48 48 42 39 44 46 41 36 32 31 31 31 26 27 32 35 35 33 32 30 30 29 31 32 32 31 29 28 26 25 26 28 30 32 32 30 29 31 31 32 32 32 32 31
48 48 47 45 46 47 48 45 39 41 44 44 40 35 32 31 32 28 30 34 35 35 35 33 31 29 30 32 34 34 32 31 30 30 26 29 28 30 32 33 32 31 32 31 31 33 33 34 34
43 46 47 45 44 46 45 46 37 38 42 42 40 37 33 32 32 34 34 35 36 37 36 36 36 32 31 31 31 33 35 37 33 34 33 30 29 30 32 33 33 34 33 33 34 34 34 34 33
41 44 41 42 44 45 44 44 39 38 41 42 41 37 33 34 36 36 37 38 38 38 39 39 38 38 37 36 34 35 38 39 37 37 34 30 31 32 34 35 33 35 36 36 35 37 36 35 35
34 34 36 38 40 41 41 43 39 35 38 40 41 40 38 37 38 39 40 40 41 41 41 42 43 42 41 40 40 38 37 40 40 40 39 35 35 37 39 38 34 33 33 34 35 36 37 36 37
33 32 33 34 35 38 37 40 33 35 35 37 40 39 38 40 41 40 41 42 42 42 42 44 45 45 45 45 45 46 42 41 44 46 47 44 43 40 41 41 38 34 34 34 35 35 36 36 37
28 26 27 30 32 33 31 37 26 29 31 33 35 38 38 40 41 41 41 42 45 46 48 49 50 51 53 52 52 52 52 50 48 49 52 50 48 45 44 42 40 40 37 35 35 36 35 35 35
23 22 23 24 25 29 26 32 26 26 27 31 33 36 38 40 41 43 45 47 49 52 54 56 57 57 58 58 58 58 57 57 55 54 55 54 52 50 47 45 43 43 41 39 38 38 38 38 38
21 21 20 21 22 21 20 26 24 22 29 32 35 38 41 43 45 48 50 53 55 57 58 60 62 62 62 62 62 62 61 59 56 54 55 56 54 52 49 47 45 44 43 42 41 39 38 39 39
23 22 20 18 18 17 18 22 25 26 28 32 35 38 41 44 48 50 51 51 51 53 55 57 57 57 59 61 62 62 63 61 56 52 55 55 55 53 51 49 47 46 44 43 42 41 39 41 42
21 20 18 16 18 19 20 22 25 28 28 29 32 35 38 41 44 46 48 50 52 54 54 57 61 62 60 57 53 51 52 54 57 52 52 56 57 53 51 49 49 48 47 45 44 42 41 43 44
18 17 17 16 19 20 21 20 23 26 29 30 31 32 35 39 43 46 49 51 50 53 57 59 60 62 63 63 58 53 49 46 47 51 50 54 56 53 50 50 51 49 48 45 45 43 43 43 44
18 16 16 16 18 19 18 16 17 20 24 28 30 34 35 39 43 47 52 56 55 54 52 56 61 62 61 62 62 58 53 46 42 43 51 53 52 50 50 50 49 47 46 46 44 43 37 44 44
13 12 12 15 16 16 19 16 17 21 23 25 26 29 35 41 46 49 52 54 58 50 50 49 48 56 55 56 56 58 58 52 47 43 46 48 49 49 48 47 45 44 43 43 40 42 42 44 43
Wind_Direction
224 226 228 229 229 228 228 229 236 231 228 226 227 230 237 237 245 249 253 256 258 259 261 259 263 266 269 265 263 264 265 264 264 263 263 263 266 269 273 276 279 281 281 279 276 274 274 271 267
224 227 232 232 234 232 232 237 237 236 233 230 225 230 230 225 229 233 235 250 256 260 261 259 259 260 262 266 267 268 270 271 271 269 267 267 267 268 269 271 273 274 276 276 274 272 268 265 266
228 229 231 233 234 234 237 240 238 237 234 235 234 236 238 233 231 237 238 246 254 253 255 261 261 259 262 263 265 268 270 270 269 270 270 269 267 267 267 269 270 270 270 270 267 266 265 264 262
233 234 235 236 235 235 228 235 237 238 233 230 239 238 244 242 236 239 240 240 244 250 254 255 259 263 262 265 269 271 274 273 272 275 276 276 274 271 270 268 270 272 270 268 267 266 265 265 265
233 235 237 238 239 232 222 234 236 238 240 236 238 245 245 242 240 238 242 244 247 251 253 254 256 260 266 267 270 274 277 278 277 276 276 276 276 276 275 274 274 273 274 274 272 270 270 268 267
235 235 237 239 237 221 219 232 236 233 232 232 236 238 241 243 241 244 241 247 247 246 251 256 258 260 262 267 272 275 276 278 280 281 279 278 279 278 278 276 277 276 275 275 275 274 271 270 270
235 238 238 237 219 215 211 229 236 233 231 229 233 239 241 242 239 241 240 242 250 252 252 256 257 259 261 265 271 275 276 278 281 284 283 282 281 280 279 278 279 278 278 278 276 275 274 272 269
234 234 234 228 215 209 210 228 237 240 235 230 232 239 244 244 243 240 242 243 247 253 255 255 260 261 264 262 264 266 269 272 276 278 280 279 280 282 280 278 276 276 277 276 275 273 271 271 271
228 231 229 220 215 206 218 229 237 242 239 235 232 236 242 243 241 238 238 241 242 245 250 255 256 258 259 260 261 264 267 269 271 277 281 284 283 281 279 278 279 281 280 278 275 271 267 265 265
225 229 225 219 218 214 222 225 232 238 241 239 241 241 242 241 241 241 240 243 243 244 247 252 255 256 258 261 262 262 265 268 270 271 274 278 279 280 279 278 277 278 278 279 278 275 272 269 266
225 227 226 222 224 221 219 229 230 238 241 240 244 242 248 247 244 245 247 245 248 249 254 256 255 255 257 260 262 265 265 266 269 271 273 276 278 278 277 278 278 280 283 283 284 282 279 275 271
227 228 228 227 228 227 223 227 233 238 243 246 248 251 254 257 250 248 249 248 251 253 252 257 261 259 256 259 262 266 270 269 268 269 272 274 276 279 278 278 275 276 278 282 284 286 287 284 278
227 229 230 228 231 233 231 229 234 240 246 246 244 253 255 254 258 256 253 250 242 244 251 252 254 256 260 264 268 270 271 273 272 273 272 272 273 277 280 277 275 275 275 277 280 283 285 285 284
230 231 231 230 233 237 237 235 236 240 246 244 236 242 254 257 257 256 253 246 245 242 244 249 247 247 250 258 264 268 273 275 277 274 273 272 271 273 277 279 278 276 279 280 282 285 286 286 285
231 233 235 234 235 239 240 234 232 235 243 239 238 243 252 257 258 256 248 244 242 242 244 242 249 251 252 255 261 267 269 271 271 274 273 272 273 275 277 278 279 279 279 280 285 285 284 285 284
233 234 234 236 237 236 239 230 233 237 240 243 239 243 250 254 256 250 241 239 247 246 240 243 244 249 253 260 261 262 267 265 268 270 273 274 273 272 272 274 276 279 280 282 281 281 284 286 283
232 234 235 235 237 236 237 234 231 235 239 243 242 239 243 252 254 246 240 240 238 244 243 242 242 247 246 250 256 260 261 263 265 267 269 270 269 268 268 272 278 280 279 280 281 283 284 286 285
231 234 235 235 237 237 237 236 229 235 240 244 245 243 240 242 249 243 232 232 235 236 242 247 248 242 249 250 253 258 261 262 262 263 260 262 267 269 268 269 274 277 280 282 283 285 287 289 289
228 231 234 235 237 238 237 239 236 238 243 246 245 244 242 240 242 240 234 231 234 238 237 241 249 252 248 250 253 256 261 263 264 266 263 264 267 270 269 268 268 272 277 279 282 285 288 289 291
229 231 234 238 236 237 238 238 238 234 239 246 244 241 240 242 239 239 239 236 235 237 242 243 242 247 252 254 253 254 257 260 265 266 265 263 262 264 266 269 271 272 275 277 279 281 285 288 289
234 234 233 237 239 240 240 239 241 238 239 243 245 242 239 240 240 241 242 243 242 241 243 246 249 248 248 253 259 256 256 263 266 266 265 262 259 261 264 267 272 272 274 278 281 281 283 286 286
232 228 230 233 237 241 242 239 240 241 241 243 244 246 250 246 245 247 248 248 250 251 251 251 251 253 254 253 254 258 254 257 264 266 264 263 261 260 264 267 268 270 273 276 281 284 285 286 283
232 229 228 230 234 238 241 244 226 242 243 243 244 248 249 249 249 248 249 252 254 256 257 257 257 258 258 258 258 258 259 259 257 262 265 265 263 260 260 262 265 267 270 275 281 282 282 284 284
220 221 222 226 230 235 235 244 241 236 239 245 246 247 249 251 253 254 256 258 260 262 262 262 261 261 261 261 260 260 261 260 260 258 260 262 261 259 259 260 264 267 268 272 276 278 281 283 284
209 212 213 219 226 234 233 243 257 248 247 247 247 247 250 255 258 260 261 263 263 264 264 263 262 261 259 258 258 259 259 259 257 252 251 256 258 257 256 257 261 266 268 270 272 276 282 284 284
196 202 206 213 222 232 236 242 253 256 257 257 258 260 261 262 262 263 267 269 270 269 267 264 260 257 256 257 257 256 255 254 254 253 248 248 253 254 254 255 257 264 268 269 270 274 280 284 286
195 202 209 219 224 229 237 240 251 259 269 268 270 272 274 275 275 273 273 273 270 266 261 258 256 253 252 251 252 253 253 253 248 248 249 247 248 251 252 254 256 262 266 270 270 273 280 283 288
199 208 218 229 237 241 244 256 268 269 273 279 277 275 276 276 276 275 272 270 268 264 261 258 255 253 249 247 244 243 244 246 248 246 244 246 245 247 250 252 255 259 265 270 271 274 280 284 289
207 215 227 242 253 259 264 267 275 279 276 275 281 286 287 289 290 285 281 281 285 282 265 258 250 248 250 245 243 241 237 235 241 240 242 244 246 247 248 251 255 259 263 267 271 276 265 284 289
218 233 239 246 253 262 269 290 279 272 273 286 285 283 288 298 298 297 299 300 296 286 266 261 254 247 244 243 242 240 234 232 234 237 240 243 245 246 247 250 255 261 264 268 272 278 281 284 286
Height
5814 5817 5820 5825 5831 5834 5838 5841 5838 5843 5844 5847 5848 5850 5851 5851 5852 5859 5858 5857 5858 5860 5861 5862 5862 5863 5864 5863 5863 5864 5865 5865 5866 5867 5867 5867 5867 5868 5868 5868 5868 5868 5868 5868 5867 5867 5867 5866 5866
5808 5810 5814 5818 5823 5828 5835 5834 5835 5836 5841 5842 5844 5844 5844 5847 5851 5852 5854 5853 5856 5857 5858 5859 5859 5859 5860 5860 5860 5861 5861 5862 5863 5863 5863 5863 5863 5863 5864 5864 5864 5864 5865 5865 5864 5864 5864 5863 5863
5802 5805 5808 5810 5815 5826 5832 5826 5826 5832 5835 5839 5840 5839 5838 5845 5848 5849 5852 5852 5852 5854 5855 5855 5856 5857 5857 5857 5858 5858 5859 5859 5859 5859 5860 5860 5860 5860 5860 5860 5860 5860 5861 5861 5861 5861 5861 5860 5860
5796 5799 5803 5804 5814 5821 5824 5817 5820 5825 5831 5834 5834 5835 5834 5841 5844 5845 5847 5848 5849 5850 5852 5852 5852 5854 5854 5854 5854 5855 5856 5856 5857 5857 5856 5857 5857 5857 5857 5857 5857 5857 5857 5857 5857 5857 5856 5856 5856
5787 5792 5794 5799 5810 5815 5815 5811 5813 5819 5826 5830 5831 5830 5831 5836 5839 5841 5843 5845 5846 5847 5848 5849 5849 5850 5850 5851 5852 5852 5853 5853 5853 5853 5853 5853 5853 5853 5853 5853 5854 5853 5853 5853 5852 5852 5852 5852 5852
5779 5784 5788 5796 5805 5807 5809 5805 5806 5813 5818 5823 5824 5824 5826 5831 5835 5836 5838 5839 5840 5842 5843 5844 5846 5847 5848 5848 5849 5849 5850 5849 5850 5850 5850 5850 5850 5849 5849 5849 5849 5849 5849 5849 5849 5848 5847 5846 5847
5773 5777 5784 5792 5796 5799 5804 5799 5801 5806 5811 5817 5818 5818 5822 5825 5830 5832 5834 5834 5834 5837 5839 5840 5841 5843 5844 5845 5846 5846 5846 5845 5846 5845 5846 5846 5846 5846 5845 5845 5845 5844 5844 5843 5843 5843 5843 5843 5843
5766 5769 5776 5784 5790 5797 5797 5794 5796 5802 5809 5811 5812 5813 5817 5821 5823 5828 5829 5831 5832 5833 5834 5835 5836 5838 5840 5841 5841 5841 5841 5842 5842 5842 5841 5841 5841 5841 5840 5840 5840 5840 5839 5839 5839 5839 5839 5839 5839
5758 5763 5771 5780 5784 5793 5791 5792 5793 5795 5800 5804 5807 5810 5813 5816 5818 5821 5824 5826 5827 5828 5829 5828 5831 5832 5834 5835 5836 5836 5837 5837 5838 5838 5838 5838 5837 5837 5836 5836 5836 5836 5836 5835 5835 5835 5834 5834 5834
5751 5756 5766 5775 5779 5783 5783 5785 5786 5789 5792 5799 5802 5804 5807 5812 5814 5815 5818 5820 5822 5823 5824 5824 5825 5827 5828 5829 5830 5831 5832 5833 5834 5834 5834 5834 5833 5833 5833 5833 5832 5832 5831 5831 5831 5830 5830 5830 5829
5745 5751 5760 5765 5772 5775 5777 5778 5781 5782 5786 5794 5797 5799 5799 5803 5808 5810 5811 5814 5816 5817 5820 5821 5821 5821 5823 5824 5825 5826 5827 5828 5828 5829 5830 5830 5829 5829 5829 5828 5828 5828 5827 5827 5827 5825 5825 5824 5823
5739 5745 5751 5759 5762 5766 5771 5773 5774 5776 5782 5789 5791 5793 5795 5797 5802 5804 5805 5808 5810 5812 5813 5814 5816 5816 5817 5818 5819 5820 5821 5822 5823 5823 5825 5825 5825 5825 5824 5823 5823 5822 5822 5822 5821 5821 5820 5819 5818
5731 5737 5744 5750 5753 5757 5764 5768 5769 5771 5777 5781 5784 5783 5786 5790 5793 5797 5799 5798 5803 5806 5806 5808 5809 5811 5811 5812 5813 5814 5815 5816 5816 5817 5818 5819 5820 5820 5819 5819 5818 5817 5816 5816 5816 5815 5814 5813 5812
5724 5729 5734 5741 5746 5750 5756 5763 5766 5771 5770 5773 5776 5777 5778 5780 5787 5789 5792 5795 5794 5797 5800 5801 5804 5804 5805 5806 5807 5808 5809 5809 5810 5811 5812 5813 5813 5814 5814 5813 5813 5812 5812 5811 5811 5809 5808 5806 5805
5716 5722 5727 5734 5740 5743 5746 5754 5760 5764 5760 5762 5768 5771 5773 5776 5778 5784 5786 5786 5788 5791 5792 5796 5798 5798 5799 5801 5802 5801 5804 5804 5805 5805 5806 5806 5807 5808 5809 5807 5807 5807 5806 5805 5805 5804 5802 5801 5799
5709 5713 5718 5727 5730 5735 5736 5748 5753 5755 5755 5757 5762 5765 5767 5770 5772 5777 5778 5781 5781 5784 5786 5787 5790 5792 5793 5794 5795 5795 5796 5798 5799 5800 5800 5800 5801 5802 5802 5801 5801 5801 5800 5799 5799 5798 5796 5794 5792
5701 5706 5712 5718 5720 5727 5730 5738 5745 5745 5747 5751 5755 5758 5760 5762 5765 5770 5773 5774 5775 5776 5777 5778 5781 5784 5787 5788 5788 5788 5790 5791 5792 5794 5795 5795 5795 5794 5795 5794 5794 5794 5793 5793 5792 5790 5788 5787 5785
5694 5699 5704 5711 5714 5719 5724 5727 5737 5738 5741 5745 5748 5751 5752 5755 5758 5762 5763 5765 5767 5769 5770 5771 5772 5776 5779 5781 5781 5782 5783 5784 5786 5786 5789 5788 5789 5788 5787 5787 5788 5787 5786 5786 5785 5783 5782 5780 5778
5685 5691 5697 5704 5708 5712 5718 5720 5729 5734 5735 5738 5742 5743 5744 5746 5749 5752 5755 5757 5760 5761 5764 5766 5766 5767 5771 5773 5774 5775 5775 5775 5777 5777 5781 5781 5783 5781 5779 5779 5780 5779 5779 5778 5777 5775 5774 5772 5771
5680 5686 5692 5696 5701 5705 5709 5713 5719 5724 5726 5729 5733 5736 5737 5739 5741 5744 5747 5749 5752 5755 5756 5757 5760 5761 5761 5764 5767 5768 5766 5767 5769 5770 5773 5776 5775 5774 5771 5771 5773 5772 5771 5770 5769 5768 5767 5765 5763
5675 5681 5686 5690 5694 5698 5704 5707 5712 5717 5719 5721 5724 5727 5729 5732 5733 5735 5738 5741 5743 5745 5747 5749 5750 5753 5754 5755 5757 5760 5759 5758 5760 5762 5763 5766 5766 5765 5763 5763 5764 5763 5763 5763 5762 5761 5759 5757 5755
5669 5675 5679 5684 5688 5692 5697 5701 5708 5709 5711 5713 5716 5720 5721 5723 5725 5727 5729 5732 5734 5736 5737 5738 5740 5741 5743 5746 5749 5750 5751 5752 5752 5751 5752 5755 5757 5758 5756 5755 5755 5755 5755 5755 5754 5752 5751 5749 5747
5666 5670 5675 5678 5682 5686 5691 5694 5704 5703 5704 5706 5709 5710 5713 5715 5717 5719 5721 5722 5723 5724 5726 5727 5728 5730 5730 5735 5737 5740 5741 5742 5745 5743 5741 5743 5746 5747 5747 5746 5746 5748 5747 5746 5745 5744 5743 5741 5739
5663 5667 5670 5674 5678 5681 5686 5689 5694 5697 5698 5699 5701 5702 5704 5706 5708 5710 5711 5711 5711 5711 5711 5712 5713 5714 5714 5718 5723 5725 5728 5729 5731 5732 5731 5732 5734 5736 5737 5738 5738 5738 5738 5737 5736 5736 5734 5732 5730
5660 5663 5667 5671 5673 5678 5682 5684 5686 5690 5691 5691 5692 5694 5695 5697 5698 5699 5699 5699 5698 5697 5696 5696 5696 5697 5697 5700 5705 5709 5712 5714 5716 5718 5720 5720 5721 5724 5726 5727 5728 5728 5729 5728 5728 5727 5725 5723 5721
5656 5659 5664 5667 5671 5675 5677 5679 5679 5682 5682 5683 5683 5684 5686 5687 5687 5687 5686 5684 5682 5681 5679 5679 5680 5681 5680 5683 5688 5691 5695 5697 5700 5703 5707 5708 5709 5712 5715 5717 5717 5719 5719 5719 5718 5717 5715 5714 5711
5654 5658 5661 5665 5667 5670 5673 5676 5676 5674 5674 5676 5676 5677 5676 5675 5674 5673 5671 5668 5665 5663 5661 5660 5660 5661 5664 5667 5671 5675 5677 5681 5684 5689 5693 5695 5697 5700 5703 5705 5707 5708 5709 5709 5708 5707 5706 5705 5702
5651 5656 5659 5661 5663 5665 5667 5669 5668 5668 5667 5667 5666 5667 5666 5663 5660 5658 5654 5651 5649 5646 5642 5639 5638 5643 5646 5649 5656 5660 5664 5667 5670 5674 5679 5682 5685 5690 5692 5694 5696 5697 5698 5699 5698 5697 5696 5694 5692
5649 5652 5654 5657 5659 5660 5662 5664 5663 5661 5661 5658 5656 5655 5652 5650 5646 5641 5636 5632 5628 5624 5621 5619 5619 5621 5627 5632 5637 5644 5650 5654 5658 5661 5665 5669 5674 5679 5681 5683 5685 5687 5688 5688 5688 5688 5688 5684 5682
5646 5648 5651 5653 5656 5656 5656 5658 5654 5653 5653 5651 5649 5646 5642 5636 5629 5622 5617 5609 5604 5600 5598 5596 5597 5603 5608 5614 5620 5627 5634 5641 5646 5651 5655 5659 5664 5667 5670 5674 5677 5678 5679 5679 5679 5678 5676 5673 5670